Munster, IN

3:18 AM CST on February 21, 2017 (GMT -0600)
Lansing Municipal

Weather History for KIGQ - December, 2013

Change the Weather History Date:

Saturday, December 28, 2013

  Actual Average (KGYY) Record (KGYY)
Temperature  
Mean Temperature 40 °F -  
Max Temperature 49 °F 31 °F 59 °F (1959)
Min Temperature 30 °F 17 °F -6 °F (1950)
Degree Days  
Heating Degree Days 26    
Moisture  
Dew Point 31 °F    
Average Humidity 72    
Maximum Humidity 87    
Minimum Humidity 55    
Precipitation  
Precipitation 0.00 in - - ()
Sea Level Pressure  
Sea Level Pressure 30.02 in    
Wind  
Wind Speed 11 mph (SSW)    
Max Wind Speed 20 mph    
Max Gust Speed 25 mph    
Visibility 10 miles    
Events      
Averages and records for this station are not official NWS values.
T = Trace of Precipitation, MM = Missing Value Source: NWS Daily Summary

Daily Weather History Graph

Daily Weather History Graph

Search for Another Location

Airport or City:

Trip Planner

Search our weather history database for the weather conditions in past years. The results will help you decide how hot, cold, wet, or windy it might be!

Date:

Astronomy

Dec. 28, 2013 Rise Set
Actual Time 7:16 AM CST 4:27 PM CST
Civil Twilight 6:44 AM CST 4:59 PM CST
Nautical Twilight 6:09 AM CST 5:34 PM CST
Astronomical Twilight 5:36 AM CST 6:07 PM CST
Moon 2:50 AM CST (12/28) 1:19 PM CST (12/28)
Length of Visible Light 10h 14m
Length of Day
9h 11m
Waning Crescent, 19% of the Moon is Illuminated
Dec 28
Waning Crescent
Jan 1
New
Jan 7
First Quarter
Jan 15
Full
Jan 23
Last Quarter

Hourly Weather History & Observations

Time (CST) Temp. Windchill Dew Point Humidity Pressure Visibility Wind Dir Wind Speed Gust Speed Precip Events Conditions
12:15 AM 38.3 °F 30.5 °F 29.3 °F 70% 30.11 in 10.0 mi SW 12.7 mph - N/A   Clear
12:35 AM 37.8 °F 30.2 °F 29.3 °F 72% 30.10 in 10.0 mi SW 11.5 mph - N/A   Clear
12:55 AM 37.8 °F 30.2 °F 29.3 °F 72% 30.10 in 10.0 mi WSW 11.5 mph 16.1 mph N/A   Clear
1:15 AM 38.3 °F 30.5 °F 29.5 °F 71% 30.10 in 10.0 mi WSW 12.7 mph - N/A   Clear
1:35 AM 37.8 °F 30.7 °F 29.3 °F 72% 30.10 in 10.0 mi WSW 10.4 mph - N/A   Clear
1:55 AM 37.6 °F 31.6 °F 29.3 °F 72% 30.10 in 10.0 mi WSW 8.1 mph 17.3 mph N/A   Clear
2:15 AM 37.4 °F 30.8 °F 29.3 °F 73% 30.10 in 10.0 mi WSW 9.2 mph - N/A   Clear
2:35 AM 36.9 °F 30.1 °F 29.3 °F 74% 30.10 in 10.0 mi WSW 9.2 mph - N/A   Clear
2:55 AM 36.7 °F 29.9 °F 29.5 °F 75% 30.10 in 10.0 mi WSW 9.2 mph - N/A   Clear
3:15 AM 36.7 °F 31.2 °F 29.5 °F 75% 30.10 in 10.0 mi WSW 6.9 mph - N/A   Clear
3:35 AM 36.3 °F 31.6 °F 29.5 °F 76% 30.10 in 10.0 mi WSW 5.8 mph - N/A   Clear
3:55 AM 32.9 °F 27.5 °F 27.3 °F 80% 30.10 in 10.0 mi South 5.8 mph - N/A   Clear
4:15 AM 31.3 °F 24.7 °F 27.3 °F 85% 30.10 in 10.0 mi SSW 6.9 mph - N/A   Clear
4:35 AM 33.1 °F 24.9 °F 29.1 °F 85% 30.11 in 10.0 mi SSW 10.4 mph - N/A   Clear
4:55 AM 33.3 °F 25.7 °F 28.9 °F 84% 30.11 in 10.0 mi SSW 9.2 mph - N/A   Clear
5:15 AM 33.1 °F 25.5 °F 28.8 °F 84% 30.11 in 10.0 mi SW 9.2 mph - N/A   Clear
5:35 AM 32.5 °F 24.8 °F 28.6 °F 85% 30.11 in 10.0 mi SSW 9.2 mph - N/A   Clear
5:55 AM 32.2 °F 24.4 °F 28.4 °F 86% 30.11 in 10.0 mi SSW 9.2 mph - N/A   Clear
6:15 AM 32.0 °F 24.2 °F 28.2 °F 86% 30.11 in 10.0 mi SSW 9.2 mph - N/A   Clear
6:35 AM 32.0 °F 25.6 °F 28.0 °F 85% 30.11 in 10.0 mi SW 6.9 mph - N/A   Clear
6:55 AM 32.0 °F 25.6 °F 28.2 °F 86% 30.11 in 10.0 mi SW 6.9 mph - N/A   Clear
7:15 AM 32.0 °F 26.4 °F 28.2 °F 86% 30.10 in 10.0 mi SW 5.8 mph - N/A   Clear
7:35 AM 30.7 °F 24.9 °F 27.3 °F 87% 30.10 in 10.0 mi SSW 5.8 mph - N/A   Clear
7:55 AM 32.0 °F 26.4 °F 28.6 °F 87% 30.10 in 10.0 mi SSW 5.8 mph - N/A   Clear
8:15 AM 34.2 °F 27.5 °F 29.3 °F 82% 30.09 in 10.0 mi SW 8.1 mph - N/A   Clear
8:35 AM 35.6 °F 29.2 °F 29.8 °F 80% 30.09 in 10.0 mi SW 8.1 mph - N/A   Clear
8:55 AM 36.7 °F 29.9 °F 30.2 °F 77% 30.09 in 10.0 mi SW 9.2 mph - N/A   Clear
9:15 AM 38.3 °F 31.4 °F 30.6 °F 74% 30.09 in 10.0 mi SW 10.4 mph - N/A   Clear
9:35 AM 39.6 °F 33.0 °F 31.1 °F 72% 30.09 in 10.0 mi SSW 10.4 mph - N/A   Clear
9:55 AM 40.6 °F 34.8 °F 31.8 °F 71% 30.09 in 10.0 mi SSW 9.2 mph - N/A   Clear
10:15 AM 42.1 °F 36.6 °F 32.0 °F 67% 30.08 in 10.0 mi SSW 9.2 mph - N/A   Clear
10:35 AM 43.0 °F 36.4 °F 32.0 °F 65% 30.08 in 10.0 mi WSW 12.7 mph - N/A   Clear
10:55 AM 43.2 °F 35.9 °F 32.0 °F 65% 30.07 in 10.0 mi SSW 15.0 mph - N/A   Clear
11:15 AM 43.9 °F 36.8 °F 32.0 °F 63% 30.06 in 10.0 mi SSW 15.0 mph - N/A   Clear
11:35 AM 44.8 °F 39.0 °F 32.5 °F 62% 30.04 in 10.0 mi SSW 11.5 mph 17.3 mph N/A   Clear
11:55 AM 46.2 °F 39.8 °F 32.9 °F 60% 30.03 in 10.0 mi SSW 15.0 mph - N/A   Clear
12:15 PM 46.6 °F - 32.7 °F 59% 30.01 in 10.0 mi SW 15.0 mph 18.4 mph N/A   Clear
12:35 PM 47.3 °F - 33.3 °F 58% 30.01 in 10.0 mi SSW 15.0 mph - N/A   Clear
12:55 PM 47.8 °F - 33.8 °F 58% 30.00 in 10.0 mi SSW 16.1 mph - N/A   Clear
1:15 PM 48.0 °F - 33.8 °F 58% 30.01 in 10.0 mi SSW 18.4 mph 23.0 mph N/A   Clear
1:35 PM 48.6 °F - 34.2 °F 58% 30.00 in 10.0 mi SSW 17.3 mph 24.2 mph N/A   Clear
1:55 PM 49.1 °F - 33.4 °F 55% 29.99 in 10.0 mi SSW 16.1 mph 21.9 mph N/A   Clear
2:15 PM 49.3 °F - 33.6 °F 55% 29.99 in 10.0 mi SSW 16.1 mph - N/A   Clear
2:35 PM 49.5 °F - 34.2 °F 56% 29.98 in 10.0 mi SSW 16.1 mph 25.3 mph N/A   Clear
2:55 PM 49.5 °F - 34.3 °F 56% 29.97 in 10.0 mi SSW 19.6 mph - N/A   Clear
3:15 PM 49.3 °F - 34.3 °F 56% 29.97 in 10.0 mi SSW 18.4 mph 24.2 mph N/A   Clear
3:35 PM 48.7 °F - 34.2 °F 57% 29.97 in 10.0 mi SSW 13.8 mph 19.6 mph N/A   Clear
3:55 PM 47.5 °F - 34.3 °F 60% 29.97 in 10.0 mi SSW 12.7 mph - N/A   Clear
4:15 PM 46.8 °F - 34.0 °F 61% 29.96 in 10.0 mi SSW 12.7 mph - N/A   Clear
4:35 PM 45.0 °F 38.9 °F 33.8 °F 65% 29.96 in 10.0 mi SSW 12.7 mph 17.3 mph N/A   Clear
4:55 PM 44.2 °F 38.4 °F 33.3 °F 65% 29.97 in 10.0 mi SSW 11.5 mph - N/A   Clear
5:15 PM 43.9 °F 38.3 °F 33.1 °F 66% 29.96 in 10.0 mi SSW 10.4 mph 18.4 mph N/A   Clear
5:35 PM 42.3 °F 36.3 °F 32.9 °F 69% 29.96 in 10.0 mi SSW 10.4 mph - N/A   Clear
5:55 PM 41.7 °F 35.6 °F 33.1 °F 71% 29.95 in 10.0 mi SSW 10.4 mph - N/A   Clear
6:15 PM 42.1 °F 34.2 °F 33.1 °F 70% 29.95 in 10.0 mi SSW 16.1 mph 19.6 mph N/A   Clear
6:35 PM 41.9 °F 34.0 °F 32.9 °F 70% 29.94 in 10.0 mi SSW 16.1 mph 19.6 mph N/A   Clear
6:55 PM 41.5 °F 33.2 °F 32.4 °F 70% 29.94 in 10.0 mi SSW 17.3 mph 23.0 mph N/A   Clear
7:15 PM 41.2 °F 32.7 °F 32.0 °F 70% 29.94 in 10.0 mi SSW 17.3 mph 23.0 mph N/A   Clear
7:35 PM 40.6 °F 32.7 °F 32.0 °F 71% 29.93 in 10.0 mi SSW 15.0 mph 23.0 mph N/A   Clear
7:55 PM 40.1 °F 32.0 °F 32.0 °F 73% 29.93 in 10.0 mi SSW 15.0 mph 20.7 mph N/A   Clear
8:15 PM 40.1 °F 32.0 °F 32.0 °F 73% 29.92 in 10.0 mi SSW 15.0 mph 21.9 mph N/A   Clear
8:35 PM 39.4 °F 32.3 °F 32.0 °F 75% 29.91 in 10.0 mi SSW 11.5 mph 18.4 mph N/A   Clear
8:55 PM 39.0 °F 31.4 °F 31.6 °F 75% 29.91 in 10.0 mi SSW 12.7 mph 17.3 mph N/A   Clear
9:15 PM 38.7 °F 30.5 °F 31.3 °F 75% 29.91 in 10.0 mi SSW 13.8 mph - N/A   Clear
9:35 PM 38.7 °F 30.5 °F 31.1 °F 74% 29.89 in 10.0 mi SSW 13.8 mph 20.7 mph N/A   Clear
9:55 PM 38.3 °F 30.1 °F 30.6 °F 74% 29.89 in 10.0 mi SSW 13.8 mph - N/A   Clear
10:15 PM 37.6 °F 30.0 °F 30.2 °F 75% 29.88 in 10.0 mi SSW 11.5 mph 18.4 mph N/A   Clear
10:35 PM 37.0 °F 29.3 °F 30.0 °F 76% 29.88 in 10.0 mi SSW 11.5 mph - N/A   Clear
10:55 PM 36.7 °F 28.9 °F 29.8 °F 76% 29.87 in 10.0 mi SSW 11.5 mph - N/A   Clear
11:15 PM 36.1 °F 29.3 °F 29.7 °F 77% 29.87 in 10.0 mi SSW 9.2 mph - N/A   Clear
11:35 PM 34.7 °F 28.8 °F 29.3 °F 81% 29.86 in 10.0 mi SSW 6.9 mph - N/A   Clear
11:55 PM 35.1 °F 27.4 °F 29.3 °F 80% 29.87 in 10.0 mi SSW 10.4 mph - N/A   Clear